Location: Celina Elementary School
(33.3262°N, 96.7767°W)
Time: 08:46:07
(UTC+00:00)

NOAA 12 - Pass Details

Date: 26 November 2021
Orbit: 795 x 816 km, 98.5° (Epoch: 19 January)

Event Time Altitude Azimuth Distance (km) Brightness Sun altitude
Rises 23:45:36 0° 169° (S) 3,322 7.4 -5.7°
Reaches altitude 10° 23:47:56 10° 171° (S) 2,396 6.7 -6.2°
Maximum altitude 23:53:14 78° 257° (WSW) 837 4.4 -7.2°
Drops below altitude 10° 23:58:35 10° 344° (NNW) 2,410 6.5 -8.2°
Sets 00:00:56 0° 346° (NNW) 3,344 7.3 -8.7°
